AFR5280 LFBD-LEVC

Flight info

Callsign AFR5280
Flight time 1h 9m
Altitude 33000
Route RWY23 VAVI6P VAVIX DCT NETUK DCT PPN DCT NOLSA N857 VASUM DCT BANEV DCT BAN DCT PINAR DCT CJN DCT VILLA DCT NANDO M871 ABOSI ABOS5D ILSZ RWY12
Aircraft A320/M-SDE3/L

Departure

Time 2026-05-07 13:31
Airport Bordeaux–Mérignac Airport (LFBD)

Arrival

Time 2026-05-07 14:41
Airport Valencia Airport (LEVC)
Time Latitude Longitude Altitude Speed Heading
2026-05-07 13:12 44.83189 -0.70356 164 ft 0 kts 135°
2026-05-07 13:21 44.83190 -0.70358 164 ft 2 kts 135°
2026-05-07 13:22 44.83202 -0.70375 163 ft 4 kts 132°
2026-05-07 13:22 44.83219 -0.70404 163 ft 4 kts 122°
2026-05-07 13:22 44.83229 -0.70437 163 ft 4 kts 88°
2026-05-07 13:22 44.83226 -0.70456 163 ft 0 kts 45°
2026-05-07 13:26 44.83229 -0.70451 163 ft 3 kts 45°
2026-05-07 13:26 44.83257 -0.70411 163 ft 9 kts 45°
2026-05-07 13:26 44.83299 -0.70351 163 ft 10 kts 45°
2026-05-07 13:27 44.83335 -0.70317 162 ft 8 kts
2026-05-07 13:27 44.83402 -0.70316 162 ft 12 kts 30°
2026-05-07 13:27 44.83467 -0.70229 161 ft 15 kts 44°
2026-05-07 13:27 44.83546 -0.70116 161 ft 18 kts 45°
2026-05-07 13:28 44.83610 -0.70019 161 ft 11 kts 37°
2026-05-07 13:28 44.83687 -0.70023 160 ft 11 kts 340°
2026-05-07 13:28 44.83691 -0.70024 160 ft 0 kts 340°
2026-05-07 13:29 44.83692 -0.70025 160 ft 2 kts 340°
2026-05-07 13:30 44.83731 -0.70050 160 ft 8 kts 335°
2026-05-07 13:30 44.83801 -0.70099 160 ft 13 kts 328°
2026-05-07 13:30 44.83828 -0.70149 161 ft 4 kts 237°
2026-05-07 13:30 44.83826 -0.70152 161 ft 0 kts 233°
2026-05-07 13:31 44.83654 -0.70408 160 ft 76 kts 226°
2026-05-07 13:31 44.83133 -0.71142 164 ft 136 kts 226°
2026-05-07 13:31 44.82348 -0.72249 226 ft 178 kts 226°
2026-05-07 13:31 44.81476 -0.73494 924 ft 179 kts 224°
2026-05-07 13:32 44.80610 -0.74731 1802 ft 177 kts 223°
2026-05-07 13:32 44.79727 -0.75992 2359 ft 188 kts 224°
2026-05-07 13:32 44.78751 -0.77384 2617 ft 211 kts 223°
2026-05-07 13:32 44.77664 -0.78921 2987 ft 232 kts 221°
2026-05-07 13:33 44.76196 -0.79974 3347 ft 251 kts 187°
2026-05-07 13:33 44.74403 -0.79996 3963 ft 262 kts 172°
2026-05-07 13:33 44.72591 -0.79612 4843 ft 266 kts 169°
2026-05-07 13:33 44.70749 -0.79128 5758 ft 269 kts 170°
2026-05-07 13:34 44.68934 -0.78677 6711 ft 270 kts 173°
2026-05-07 13:34 44.65173 -0.77901 8429 ft 277 kts 174°
2026-05-07 13:34 44.63250 -0.77484 9291 ft 281 kts 173°
2026-05-07 13:35 44.61308 -0.77027 10107 ft 285 kts 172°
2026-05-07 13:35 44.59297 -0.76550 10532 ft 305 kts 173°
2026-05-07 13:35 44.57130 -0.76044 10778 ft 327 kts 172°
2026-05-07 13:35 44.54840 -0.75513 11355 ft 337 kts 172°
2026-05-07 13:36 44.52514 -0.74976 12097 ft 340 kts 172°
2026-05-07 13:36 44.50164 -0.74438 12887 ft 343 kts 172°
2026-05-07 13:36 44.47836 -0.73912 13660 ft 345 kts 172°
2026-05-07 13:36 44.45454 -0.73380 14350 ft 348 kts 172°
2026-05-07 13:37 44.43053 -0.72844 15029 ft 351 kts 172°
2026-05-07 13:37 44.40628 -0.72298 15691 ft 354 kts 172°
2026-05-07 13:37 44.38191 -0.71746 16350 ft 357 kts 172°
2026-05-07 13:37 44.35727 -0.71189 17004 ft 360 kts 172°
2026-05-07 13:38 44.33239 -0.70629 17635 ft 364 kts 173°
2026-05-07 13:38 44.30715 -0.70241 18247 ft 366 kts 181°
2026-05-07 13:38 44.28175 -0.70554 18783 ft 367 kts 193°
2026-05-07 13:38 44.25743 -0.71606 19329 ft 368 kts 204°
2026-05-07 13:39 44.23529 -0.73309 19859 ft 370 kts 214°
2026-05-07 13:39 44.21373 -0.75305 20390 ft 373 kts 214°
2026-05-07 13:39 44.19205 -0.77307 20936 ft 375 kts 214°
2026-05-07 13:39 44.17024 -0.79319 21478 ft 377 kts 214°
2026-05-07 13:40 44.14829 -0.81339 21996 ft 380 kts 213°
2026-05-07 13:40 44.12613 -0.83369 22501 ft 383 kts 213°
2026-05-07 13:40 44.10378 -0.85411 23022 ft 385 kts 213°
2026-05-07 13:40 44.08156 -0.87438 23509 ft 388 kts 213°
2026-05-07 13:41 44.05895 -0.89500 23930 ft 390 kts 213°
2026-05-07 13:41 44.03622 -0.91575 24365 ft 392 kts 213°
2026-05-07 13:41 44.01336 -0.93666 24780 ft 394 kts 213°
2026-05-07 13:41 43.99048 -0.95757 25195 ft 396 kts 213°
2026-05-07 13:42 43.96735 -0.97869 25612 ft 397 kts 213°
2026-05-07 13:42 43.94421 -0.99976 26027 ft 399 kts 213°
2026-05-07 13:42 43.92095 -1.02091 26431 ft 401 kts 213°
2026-05-07 13:42 43.89766 -1.04210 26828 ft 402 kts 213°
2026-05-07 13:43 43.87417 -1.06344 27224 ft 404 kts 213°
2026-05-07 13:43 43.85060 -1.08482 27619 ft 406 kts 213°
2026-05-07 13:43 43.82728 -1.10598 28011 ft 407 kts 213°
2026-05-07 13:43 43.80350 -1.12758 28376 ft 410 kts 213°
2026-05-07 13:44 43.77960 -1.14926 28766 ft 411 kts 213°
2026-05-07 13:44 43.75558 -1.17099 29125 ft 413 kts 213°
2026-05-07 13:44 43.73155 -1.19266 29459 ft 415 kts 213°
2026-05-07 13:44 43.70723 -1.21453 29797 ft 417 kts 212°
2026-05-07 13:45 43.68283 -1.23643 30111 ft 419 kts 212°
2026-05-07 13:45 43.65840 -1.25837 30381 ft 420 kts 212°
2026-05-07 13:45 43.63383 -1.28045 30658 ft 422 kts 212°
2026-05-07 13:45 43.60922 -1.30257 30930 ft 423 kts 212°
2026-05-07 13:46 43.58496 -1.32434 31316 ft 422 kts 212°
2026-05-07 13:46 43.56035 -1.34641 31704 ft 420 kts 212°
2026-05-07 13:46 43.53592 -1.36832 32089 ft 419 kts 212°
2026-05-07 13:46 43.51147 -1.39021 32481 ft 418 kts 212°
2026-05-07 13:47 43.48713 -1.41197 32850 ft 417 kts 212°
2026-05-07 13:47 43.43903 -1.45501 32948 ft 408 kts 212°
2026-05-07 13:48 43.39189 -1.49706 32950 ft 406 kts 212°
2026-05-07 13:48 43.34450 -1.53914 32959 ft 406 kts 212°
2026-05-07 13:49 43.29706 -1.58123 32919 ft 406 kts 212°
2026-05-07 13:49 43.24653 -1.61463 32924 ft 406 kts 196°
2026-05-07 13:50 43.19114 -1.62674 32921 ft 406 kts 188°
2026-05-07 13:50 43.13506 -1.63596 32918 ft 406 kts 188°
2026-05-07 13:51 43.07909 -1.64530 32918 ft 406 kts 188°
2026-05-07 13:51 43.02296 -1.65460 32920 ft 406 kts 188°
2026-05-07 13:52 42.96687 -1.66378 32924 ft 406 kts 188°
2026-05-07 13:52 42.91132 -1.67290 32930 ft 405 kts 188°
2026-05-07 13:53 42.85531 -1.68207 32952 ft 405 kts 188°
2026-05-07 13:53 42.79938 -1.69123 32948 ft 404 kts 188°
2026-05-07 13:54 42.74376 -1.70165 32943 ft 403 kts 194°
2026-05-07 13:54 42.69237 -1.72982 32942 ft 402 kts 206°
2026-05-07 13:55 42.64228 -1.76379 32936 ft 402 kts 206°
2026-05-07 13:55 42.59215 -1.79740 32922 ft 402 kts 206°
2026-05-07 13:56 42.54198 -1.83085 32916 ft 401 kts 206°
2026-05-07 13:56 42.49223 -1.86411 32908 ft 401 kts 206°
2026-05-07 13:57 42.44222 -1.89759 32918 ft 401 kts 206°
2026-05-07 13:57 42.39222 -1.93097 32929 ft 402 kts 206°
2026-05-07 13:58 42.34198 -1.96439 32913 ft 403 kts 206°
2026-05-07 13:58 42.29159 -1.99792 32910 ft 404 kts 206°
2026-05-07 13:59 42.24151 -2.03128 32912 ft 404 kts 206°
2026-05-07 13:59 42.19099 -2.06473 32909 ft 405 kts 206°
2026-05-07 14:00 42.14049 -2.09815 32898 ft 405 kts 206°
2026-05-07 14:00 42.08981 -2.13158 32909 ft 406 kts 206°
2026-05-07 14:01 42.03944 -2.16465 32911 ft 406 kts 206°
2026-05-07 14:01 41.98860 -2.19804 32916 ft 406 kts 206°
2026-05-07 14:02 41.93795 -2.23133 32910 ft 406 kts 206°
2026-05-07 14:02 41.88708 -2.26464 32916 ft 406 kts 205°
2026-05-07 14:03 41.83626 -2.29782 32922 ft 407 kts 206°
2026-05-07 14:03 41.78556 -2.33086 32909 ft 409 kts 206°
2026-05-07 14:04 41.73438 -2.36422 32910 ft 410 kts 206°
2026-05-07 14:04 41.68293 -2.39775 32911 ft 412 kts 206°
2026-05-07 14:05 41.63133 -2.43128 32912 ft 412 kts 206°
2026-05-07 14:05 41.57998 -2.46453 32908 ft 413 kts 206°
2026-05-07 14:06 41.52833 -2.49789 32908 ft 413 kts 206°
2026-05-07 14:06 41.47644 -2.53141 32909 ft 415 kts 206°
2026-05-07 14:07 41.42432 -2.56499 32910 ft 416 kts 206°
2026-05-07 14:07 41.37210 -2.59857 32915 ft 417 kts 206°
2026-05-07 14:08 41.31765 -2.62324 32920 ft 418 kts 189°
2026-05-07 14:08 41.25940 -2.62388 32919 ft 422 kts 178°
2026-05-07 14:09 41.20062 -2.61859 32927 ft 423 kts 178°
2026-05-07 14:09 41.14194 -2.61352 32931 ft 424 kts 178°
2026-05-07 14:10 41.08670 -2.60865 32933 ft 424 kts 179°
2026-05-07 14:10 41.02814 -2.60344 32944 ft 424 kts 178°
2026-05-07 14:11 40.96917 -2.59820 32943 ft 425 kts 178°
2026-05-07 14:11 40.91022 -2.59290 32943 ft 425 kts 178°
2026-05-07 14:12 40.85132 -2.58750 32942 ft 425 kts 179°
2026-05-07 14:12 40.79229 -2.58216 32949 ft 425 kts 179°
2026-05-07 14:13 40.73373 -2.57693 32957 ft 425 kts 179°
2026-05-07 14:13 40.67473 -2.57167 32955 ft 425 kts 179°
2026-05-07 14:14 40.61579 -2.56642 32964 ft 425 kts 179°
2026-05-07 14:14 40.55689 -2.56109 32873 ft 426 kts 179°
2026-05-07 14:14 40.52745 -2.55844 32601 ft 424 kts 179°
2026-05-07 14:15 40.49797 -2.55581 32332 ft 422 kts 178°
2026-05-07 14:15 40.46882 -2.55318 32071 ft 419 kts 178°
2026-05-07 14:15 40.43989 -2.55061 31812 ft 415 kts 178°
2026-05-07 14:15 40.41157 -2.54780 31560 ft 413 kts 175°
2026-05-07 14:16 40.38344 -2.54017 31303 ft 412 kts 165°
2026-05-07 14:16 40.35682 -2.52641 30902 ft 412 kts 156°
2026-05-07 14:16 40.33259 -2.50685 30349 ft 405 kts 147°
2026-05-07 14:16 40.31030 -2.48492 29753 ft 400 kts 147°
2026-05-07 14:17 40.28803 -2.46325 29206 ft 397 kts 147°
2026-05-07 14:17 40.26618 -2.44218 28686 ft 394 kts 147°
2026-05-07 14:17 40.24419 -2.42106 28160 ft 391 kts 147°
2026-05-07 14:17 40.22234 -2.40014 27657 ft 388 kts 147°
2026-05-07 14:18 40.20074 -2.37935 27186 ft 385 kts 146°
2026-05-07 14:18 40.17927 -2.35858 26684 ft 382 kts 146°
2026-05-07 14:18 40.15802 -2.33795 26217 ft 379 kts 146°
2026-05-07 14:18 40.13696 -2.31751 25759 ft 376 kts 146°
2026-05-07 14:19 40.11599 -2.29722 25305 ft 373 kts 146°
2026-05-07 14:19 40.09519 -2.27715 24860 ft 371 kts 146°
2026-05-07 14:19 40.07455 -2.25723 24426 ft 368 kts 146°
2026-05-07 14:19 40.05422 -2.23760 23993 ft 367 kts 146°
2026-05-07 14:20 40.03377 -2.21787 23560 ft 365 kts 146°
2026-05-07 14:20 40.01377 -2.19769 23060 ft 364 kts 140°
2026-05-07 14:20 39.99669 -2.17339 22634 ft 364 kts 129°
2026-05-07 14:20 39.98355 -2.14513 22185 ft 365 kts 118°
2026-05-07 14:21 39.97476 -2.11412 21743 ft 365 kts 110°
2026-05-07 14:21 39.96747 -2.08250 21308 ft 363 kts 110°
2026-05-07 14:21 39.96020 -2.05098 20832 ft 362 kts 110°
2026-05-07 14:21 39.95296 -2.01979 20385 ft 360 kts 110°
2026-05-07 14:22 39.94574 -1.98888 19925 ft 360 kts 110°
2026-05-07 14:22 39.93837 -1.95737 19478 ft 359 kts 110°
2026-05-07 14:22 39.93119 -1.92669 19017 ft 359 kts 110°
2026-05-07 14:22 39.92390 -1.89557 18556 ft 359 kts 110°
2026-05-07 14:23 39.91663 -1.86448 18063 ft 358 kts 110°
2026-05-07 14:23 39.90943 -1.83363 17602 ft 356 kts 110°
2026-05-07 14:23 39.90228 -1.80299 17145 ft 350 kts 109°
2026-05-07 14:23 39.89521 -1.77272 16704 ft 349 kts 109°
2026-05-07 14:24 39.88815 -1.74264 16265 ft 347 kts 109°
2026-05-07 14:24 39.88105 -1.71258 15822 ft 346 kts 109°
2026-05-07 14:24 39.87414 -1.68333 15394 ft 341 kts 109°
2026-05-07 14:24 39.86718 -1.65392 14959 ft 341 kts 109°
2026-05-07 14:25 39.86019 -1.62449 14507 ft 336 kts 109°
2026-05-07 14:25 39.85333 -1.59559 14086 ft 336 kts 109°
2026-05-07 14:25 39.84648 -1.56672 13675 ft 328 kts 109°
2026-05-07 14:25 39.83996 -1.53919 13438 ft 309 kts 109°
2026-05-07 14:26 39.83372 -1.51287 12938 ft 304 kts 109°
2026-05-07 14:26 39.82743 -1.48647 12407 ft 305 kts 109°
2026-05-07 14:26 39.82126 -1.46068 12036 ft 294 kts 110°
2026-05-07 14:26 39.81533 -1.43581 11572 ft 290 kts 109°
2026-05-07 14:27 39.80940 -1.41087 11169 ft 288 kts 108°
2026-05-07 14:27 39.80350 -1.38612 10768 ft 286 kts 108°
2026-05-07 14:27 39.79758 -1.36144 10367 ft 284 kts 108°
2026-05-07 14:27 39.79177 -1.33714 10203 ft 282 kts 109°
2026-05-07 14:28 39.78591 -1.31266 10102 ft 282 kts 109°
2026-05-07 14:28 39.78017 -1.28870 9975 ft 281 kts 108°
2026-05-07 14:28 39.77433 -1.26441 9631 ft 283 kts 108°
2026-05-07 14:28 39.76854 -1.24032 9256 ft 273 kts 109°
2026-05-07 14:29 39.76307 -1.21744 8933 ft 260 kts 108°
2026-05-07 14:29 39.75773 -1.19518 8517 ft 253 kts 108°
2026-05-07 14:29 39.75261 -1.17388 8178 ft 245 kts 108°
2026-05-07 14:29 39.74753 -1.15296 7845 ft 242 kts 108°
2026-05-07 14:30 39.74256 -1.13253 7500 ft 236 kts 108°
2026-05-07 14:30 39.73768 -1.11239 7163 ft 233 kts 107°
2026-05-07 14:30 39.73285 -1.09247 6851 ft 229 kts 107°
2026-05-07 14:30 39.72809 -1.07286 6579 ft 230 kts 107°
2026-05-07 14:31 39.72329 -1.05310 6292 ft 228 kts 107°
2026-05-07 14:31 39.71848 -1.03338 6229 ft 229 kts 107°
2026-05-07 14:31 39.71375 -1.01387 6132 ft 226 kts 107°
2026-05-07 14:31 39.70899 -0.99422 6044 ft 227 kts 108°
2026-05-07 14:32 39.70218 -0.97586 5933 ft 228 kts 121°
2026-05-07 14:32 39.69374 -0.95837 5759 ft 227 kts 121°
2026-05-07 14:32 39.68547 -0.94134 5599 ft 226 kts 121°
2026-05-07 14:32 39.67714 -0.92417 5450 ft 221 kts 121°
2026-05-07 14:33 39.66918 -0.90783 5299 ft 208 kts 121°
2026-05-07 14:33 39.66150 -0.89207 5187 ft 204 kts 120°
2026-05-07 14:33 39.65395 -0.87653 5045 ft 201 kts 120°
2026-05-07 14:33 39.64663 -0.86146 4891 ft 197 kts 121°
2026-05-07 14:34 39.63947 -0.84671 4729 ft 191 kts 121°
2026-05-07 14:34 39.63262 -0.83259 4612 ft 183 kts 120°
2026-05-07 14:34 39.62577 -0.81847 4479 ft 184 kts 122°
2026-05-07 14:34 39.61908 -0.80469 4348 ft 181 kts 122°
2026-05-07 14:35 39.61236 -0.79087 4223 ft 180 kts 121°
2026-05-07 14:35 39.60571 -0.77719 4096 ft 180 kts 122°
2026-05-07 14:35 39.59861 -0.76370 3975 ft 181 kts 125°
2026-05-07 14:35 39.59181 -0.75008 3838 ft 180 kts 118°
2026-05-07 14:36 39.58581 -0.73568 3709 ft 183 kts 116°
2026-05-07 14:36 39.58004 -0.72087 3560 ft 182 kts 114°
2026-05-07 14:36 39.57452 -0.70642 3420 ft 176 kts 114°
2026-05-07 14:36 39.56912 -0.69213 3286 ft 175 kts 112°
2026-05-07 14:37 39.56395 -0.67840 3205 ft 173 kts 113°
2026-05-07 14:37 39.55333 -0.65028 2783 ft 171 kts 113°
2026-05-07 14:37 39.54812 -0.63660 2544 ft 171 kts 114°
2026-05-07 14:38 39.54285 -0.62266 2335 ft 171 kts 114°
2026-05-07 14:38 39.53766 -0.60889 2090 ft 168 kts 115°
2026-05-07 14:38 39.53266 -0.59549 1858 ft 166 kts 113°
2026-05-07 14:38 39.52786 -0.58199 1603 ft 159 kts 116°
2026-05-07 14:39 39.52312 -0.56973 1426 ft 148 kts 115°
2026-05-07 14:39 39.51862 -0.55826 1281 ft 138 kts 117°
2026-05-07 14:39 39.51416 -0.54749 1044 ft 137 kts 114°
2026-05-07 14:39 39.51007 -0.53644 828 ft 137 kts 115°
2026-05-07 14:40 39.50600 -0.52560 683 ft 134 kts 116°
2026-05-07 14:40 39.50189 -0.51480 562 ft 133 kts 113°
2026-05-07 14:40 39.49793 -0.50421 370 ft 131 kts 113°
2026-05-07 14:40 39.49385 -0.49354 255 ft 130 kts 114°
2026-05-07 14:41 39.48985 -0.48320 213 ft 129 kts 115°
2026-05-07 14:41 39.48685 -0.47470 201 ft 54 kts 113°
2026-05-07 14:41 39.48598 -0.47244 196 ft 18 kts 111°
2026-05-07 14:41 39.48546 -0.47193 194 ft 5 kts 133°
2026-05-07 14:42 39.48531 -0.47155 202 ft 3 kts 117°
2026-05-07 14:42 39.48514 -0.47096 196 ft 10 kts 110°
2026-05-07 14:42 39.48500 -0.47046 183 ft 8 kts 109°
2026-05-07 14:42 39.48472 -0.46957 181 ft 13 kts 115°
2026-05-07 14:43 39.48441 -0.46865 181 ft 0 kts 101°
2026-05-07 14:43 39.48444 -0.46843 180 ft 4 kts 64°
2026-05-07 14:43 39.48461 -0.46827 180 ft 5 kts 43°
2026-05-07 14:43 39.48492 -0.46763 178 ft 8 kts 57°
2026-05-07 14:44 39.48493 -0.46761 178 ft 0 kts 55°
2026-05-07 14:44 39.48520 -0.46738 177 ft 8 kts 14°
2026-05-07 14:44 39.48570 -0.46759 176 ft 9 kts 330°
2026-05-07 14:44 39.48587 -0.46771 176 ft 0 kts 328°
2026-05-07 14:45 39.48598 -0.46790 176 ft 4 kts 305°
2026-05-07 14:45 39.48618 -0.46825 177 ft 5 kts 305°
2026-05-07 14:45 39.48633 -0.46860 178 ft 4 kts 296°
2026-05-07 14:45 39.48648 -0.46897 179 ft 5 kts 298°
2026-05-07 14:46 39.48665 -0.46938 180 ft 6 kts 298°
2026-05-07 14:46 39.48691 -0.47009 181 ft 9 kts 295°
2026-05-07 14:46 39.48720 -0.47083 183 ft 10 kts 297°
2026-05-07 14:46 39.48752 -0.47148 194 ft 7 kts 311°
2026-05-07 14:47 39.48792 -0.47187 199 ft 9 kts 330°
2026-05-07 14:47 39.48857 -0.47226 196 ft 10 kts 338°
2026-05-07 14:47 39.48914 -0.47269 205 ft 9 kts 311°
2026-05-07 14:47 39.48926 -0.47294 198 ft 0 kts 300°
2026-05-07 14:48 39.48931 -0.47304 199 ft 4 kts 301°
2026-05-07 14:48 39.48945 -0.47337 195 ft 6 kts 298°
2026-05-07 14:49 39.48960 -0.47355 204 ft 1 kts 333°
2026-05-07 14:49 39.48981 -0.47353 199 ft 0 kts 24°
2026-05-07 14:49 39.48983 -0.47352 199 ft 2 kts 21°
2026-05-07 14:49 39.48997 -0.47349 201 ft 3 kts 12°
2026-05-07 14:50 39.49021 -0.47342 192 ft 4 kts 12°
2026-05-07 14:50 39.49038 -0.47338 192 ft 0 kts 11°